Location: Cosy Dell
(34.2789°N, 117.4537°W)
Time: 12:29:32
(UTC+00:00)

SL-8 Rocket - Pass Details

Date: 14 July 2020
Orbit: 958 x 990 km, 82.9° (Epoch: 08 August)

Event Time Altitude Azimuth Distance (km) Brightness Sun altitude
Exits shadow 06:17:09 85° 68° (ENE) 967 3.8 -29.4°
Drops below altitude 10° 06:23:14 10° 7° (N) 2,694 7.0 -30.0°
Sets 06:25:44 0° 7° (N) 3,643 7.8 -30.2°
